Year,Month,Day,Hour,Minute,Value (Times are PST for temperature in C)
2006,06,25,00,00,15.80
2006,06,25,00,01,15.80
2006,06,25,00,02,15.80
2006,06,25,00,03,15.80
2006,06,25,00,04,15.80
2006,06,25,00,05,15.80
2006,06,25,00,06,15.70
2006,06,25,00,07,15.70
2006,06,25,00,08,15.70
2006,06,25,00,09,15.70
2006,06,25,00,10,15.60
2006,06,25,00,11,15.60
2006,06,25,00,12,15.60
2006,06,25,00,13,15.60
2006,06,25,00,14,15.50
2006,06,25,00,15,15.50
2006,06,25,00,16,15.50
2006,06,25,00,17,15.50
2006,06,25,00,18,15.50
2006,06,25,00,19,15.40
2006,06,25,00,20,15.40
2006,06,25,00,21,15.40
2006,06,25,00,22,15.40
2006,06,25,00,23,15.30
2006,06,25,00,24,15.30
2006,06,25,00,25,15.30
2006,06,25,00,26,15.30
2006,06,25,00,27,15.30
2006,06,25,00,28,15.30
2006,06,25,00,29,15.30
2006,06,25,00,30,15.30
2006,06,25,00,31,15.20
2006,06,25,00,32,15.20
2006,06,25,00,33,15.20
2006,06,25,00,34,15.20
2006,06,25,00,35,15.20
2006,06,25,00,36,15.20
2006,06,25,00,37,15.10
2006,06,25,00,38,15.10
2006,06,25,00,39,15.10
2006,06,25,00,40,15.10
2006,06,25,00,41,15.10
2006,06,25,00,42,15.10
2006,06,25,00,43,15.00
2006,06,25,00,44,15.00
2006,06,25,00,45,15.00
2006,06,25,00,46,15.00
2006,06,25,00,47,15.00
2006,06,25,00,48,15.00
2006,06,25,00,49,15.00
2006,06,25,00,50,15.00
2006,06,25,00,51,15.00
2006,06,25,00,52,14.90
2006,06,25,00,53,14.90
2006,06,25,00,54,14.90
2006,06,25,00,55,14.90
2006,06,25,00,56,14.90
2006,06,25,00,57,14.90
2006,06,25,00,58,14.90
2006,06,25,00,59,14.90
2006,06,25,01,00,14.90
2006,06,25,01,01,14.80
2006,06,25,01,02,14.80
2006,06,25,01,03,14.80
2006,06,25,01,04,14.80
2006,06,25,01,05,14.80
2006,06,25,01,06,14.80
2006,06,25,01,07,14.80
2006,06,25,01,08,14.80
2006,06,25,01,09,14.80
2006,06,25,01,10,14.80
2006,06,25,01,11,14.80
2006,06,25,01,12,14.80
2006,06,25,01,13,14.70
2006,06,25,01,14,14.70
2006,06,25,01,15,14.70
2006,06,25,01,16,14.70
2006,06,25,01,17,14.70
2006,06,25,01,18,14.70
2006,06,25,01,19,14.60
2006,06,25,01,20,14.60
2006,06,25,01,21,14.60
2006,06,25,01,22,14.60
2006,06,25,01,23,14.60
2006,06,25,01,24,14.60
2006,06,25,01,25,14.50
2006,06,25,01,26,14.50
2006,06,25,01,27,14.40
2006,06,25,01,28,14.40
2006,06,25,01,29,14.40
2006,06,25,01,30,14.40
2006,06,25,01,31,14.40
2006,06,25,01,32,14.30
2006,06,25,01,33,14.30
2006,06,25,01,34,14.30
2006,06,25,01,35,14.30
2006,06,25,01,36,14.30
2006,06,25,01,37,14.30
2006,06,25,01,38,14.30
2006,06,25,01,39,14.20
2006,06,25,01,40,14.20
2006,06,25,01,41,14.20
2006,06,25,01,42,14.20
2006,06,25,01,43,14.20
2006,06,25,01,44,14.20
2006,06,25,01,45,14.20
2006,06,25,01,46,14.20
2006,06,25,01,47,14.20
2006,06,25,01,48,14.20
2006,06,25,01,49,14.20
2006,06,25,01,50,14.20
2006,06,25,01,51,14.20
2006,06,25,01,52,14.20
2006,06,25,01,53,14.20
2006,06,25,01,54,14.10
2006,06,25,01,55,14.10
2006,06,25,01,56,14.10
2006,06,25,01,57,14.10
2006,06,25,01,58,14.10
2006,06,25,01,59,14.10
2006,06,25,02,00,14.10
2006,06,25,02,01,14.00
2006,06,25,02,02,14.00
2006,06,25,02,03,14.00
2006,06,25,02,04,14.00
2006,06,25,02,05,14.00
2006,06,25,02,06,14.00
2006,06,25,02,07,14.00
2006,06,25,02,08,14.00
2006,06,25,02,09,14.00
2006,06,25,02,10,13.90
2006,06,25,02,11,13.90
2006,06,25,02,12,13.90
2006,06,25,02,13,13.90
2006,06,25,02,14,13.90
2006,06,25,02,15,13.90
2006,06,25,02,16,13.80
2006,06,25,02,17,13.80
2006,06,25,02,18,13.80
2006,06,25,02,19,13.80
2006,06,25,02,20,13.80
2006,06,25,02,21,13.80
2006,06,25,02,22,13.70
2006,06,25,02,23,13.70
2006,06,25,02,24,13.70
2006,06,25,02,25,13.70
2006,06,25,02,26,13.70
2006,06,25,02,27,13.70
2006,06,25,02,28,13.70
2006,06,25,02,29,13.70
2006,06,25,02,30,13.70
2006,06,25,02,31,13.70
2006,06,25,02,32,13.70
2006,06,25,02,33,13.70
2006,06,25,02,34,13.70
2006,06,25,02,35,13.60
2006,06,25,02,36,13.60
2006,06,25,02,37,13.60
2006,06,25,02,38,13.60
2006,06,25,02,39,13.60
2006,06,25,02,40,13.60
2006,06,25,02,41,13.60
2006,06,25,02,42,13.60
2006,06,25,02,43,13.60
2006,06,25,02,44,13.50
2006,06,25,02,45,13.50
2006,06,25,02,46,13.50
2006,06,25,02,47,13.50
2006,06,25,02,48,13.50
2006,06,25,02,49,13.50
2006,06,25,02,50,13.50
2006,06,25,02,51,13.50
2006,06,25,02,52,13.40
2006,06,25,02,53,13.40
2006,06,25,02,54,13.40
2006,06,25,02,55,13.40
2006,06,25,02,56,13.40
2006,06,25,02,57,13.40
2006,06,25,02,58,13.40
2006,06,25,02,59,13.40
2006,06,25,03,00,13.40
2006,06,25,03,01,13.40
2006,06,25,03,02,13.40
2006,06,25,03,03,13.40
2006,06,25,03,04,13.40
2006,06,25,03,05,13.40
2006,06,25,03,06,13.40
2006,06,25,03,07,13.40
2006,06,25,03,08,13.40
2006,06,25,03,09,13.40
2006,06,25,03,10,13.40
2006,06,25,03,11,13.30
2006,06,25,03,12,13.30
2006,06,25,03,13,13.30
2006,06,25,03,14,13.30
2006,06,25,03,15,13.30
2006,06,25,03,16,13.30
2006,06,25,03,17,13.30
2006,06,25,03,18,13.30
2006,06,25,03,19,13.30
2006,06,25,03,20,13.30
2006,06,25,03,21,13.30
2006,06,25,03,22,13.30
2006,06,25,03,23,13.20
2006,06,25,03,24,13.20
2006,06,25,03,25,13.20
2006,06,25,03,26,13.20
2006,06,25,03,27,13.20
2006,06,25,03,28,13.10
2006,06,25,03,29,13.10
2006,06,25,03,30,13.10
2006,06,25,03,31,13.10
2006,06,25,03,32,13.10
2006,06,25,03,33,13.10
2006,06,25,03,34,13.00
2006,06,25,03,35,13.00
2006,06,25,03,36,13.00
2006,06,25,03,37,13.00
2006,06,25,03,38,13.00
2006,06,25,03,39,13.00
2006,06,25,03,40,12.90
2006,06,25,03,41,12.90
2006,06,25,03,42,12.90
2006,06,25,03,43,12.90
2006,06,25,03,44,12.90
2006,06,25,03,45,12.90
2006,06,25,03,46,12.80
2006,06,25,03,47,12.80
2006,06,25,03,48,12.80
2006,06,25,03,49,12.80
2006,06,25,03,50,12.80
2006,06,25,03,51,12.80
2006,06,25,03,52,12.80
2006,06,25,03,53,12.80
2006,06,25,03,54,12.80
2006,06,25,03,55,12.80
2006,06,25,03,56,12.80
2006,06,25,03,57,12.80
2006,06,25,03,58,12.70
2006,06,25,03,59,12.70
2006,06,25,04,00,12.70
2006,06,25,04,01,12.70
2006,06,25,04,02,12.70
2006,06,25,04,03,12.70
2006,06,25,04,04,12.70
2006,06,25,04,05,12.70
2006,06,25,04,06,12.70
2006,06,25,04,07,12.70
2006,06,25,04,08,12.80
2006,06,25,04,09,12.80
2006,06,25,04,10,12.80
2006,06,25,04,11,12.80
2006,06,25,04,12,12.80
2006,06,25,04,13,12.80
2006,06,25,04,14,12.80
2006,06,25,04,15,12.80
2006,06,25,04,16,12.80
2006,06,25,04,17,12.80
2006,06,25,04,18,12.80
2006,06,25,04,19,12.80
2006,06,25,04,20,12.80
2006,06,25,04,21,12.80
2006,06,25,04,22,12.80
2006,06,25,04,23,12.80
2006,06,25,04,24,12.80
2006,06,25,04,25,12.80
2006,06,25,04,26,12.80
2006,06,25,04,27,12.80
2006,06,25,04,28,12.80
2006,06,25,04,29,12.80
2006,06,25,04,30,12.80
2006,06,25,04,31,12.80
2006,06,25,04,32,12.70
2006,06,25,04,33,12.70
2006,06,25,04,34,12.70
2006,06,25,04,35,12.70
2006,06,25,04,36,12.70
2006,06,25,04,37,12.60
2006,06,25,04,38,12.60
2006,06,25,04,39,12.60
2006,06,25,04,40,12.60
2006,06,25,04,41,12.50
2006,06,25,04,42,12.50
2006,06,25,04,43,12.50
2006,06,25,04,44,12.50
2006,06,25,04,45,12.50
2006,06,25,04,46,12.50
2006,06,25,04,47,12.50
2006,06,25,04,48,12.50
2006,06,25,04,49,12.50
2006,06,25,04,50,12.50
2006,06,25,04,51,12.50
2006,06,25,04,52,12.40
2006,06,25,04,53,12.40
2006,06,25,04,54,12.40
2006,06,25,04,55,12.40
2006,06,25,04,56,12.40
2006,06,25,04,57,12.40
2006,06,25,04,58,12.40
2006,06,25,04,59,12.40
2006,06,25,05,00,12.40
2006,06,25,05,01,12.30
2006,06,25,05,02,12.30
2006,06,25,05,03,12.30
2006,06,25,05,04,12.30
2006,06,25,05,05,12.30
2006,06,25,05,06,12.30
2006,06,25,05,07,12.30
2006,06,25,05,08,12.30
2006,06,25,05,09,12.30
2006,06,25,05,10,12.30
2006,06,25,05,11,12.30
2006,06,25,05,12,12.30
2006,06,25,05,13,12.30
2006,06,25,05,14,12.30
2006,06,25,05,15,12.30
2006,06,25,05,16,12.30
2006,06,25,05,17,12.30
2006,06,25,05,18,12.30
2006,06,25,05,19,12.30
2006,06,25,05,20,12.30
2006,06,25,05,21,12.30
2006,06,25,05,22,12.30
2006,06,25,05,23,12.30
2006,06,25,05,24,12.30
2006,06,25,05,25,12.30
2006,06,25,05,26,12.30
2006,06,25,05,27,12.30
2006,06,25,05,28,12.30
2006,06,25,05,29,12.30
2006,06,25,05,30,12.30
2006,06,25,05,31,12.30
2006,06,25,05,32,12.30
2006,06,25,05,33,12.30
2006,06,25,05,34,12.30
2006,06,25,05,35,12.30
2006,06,25,05,36,12.30
2006,06,25,05,37,12.20
2006,06,25,05,38,12.20
2006,06,25,05,39,12.20
2006,06,25,05,40,12.20
2006,06,25,05,41,12.20
2006,06,25,05,42,12.20
2006,06,25,05,43,12.20
2006,06,25,05,44,12.20
2006,06,25,05,45,12.20
2006,06,25,05,46,12.20
2006,06,25,05,47,12.20
2006,06,25,05,48,12.20
2006,06,25,05,49,12.20
2006,06,25,05,50,12.20
2006,06,25,05,51,12.20
2006,06,25,05,52,12.20
2006,06,25,05,53,12.20
2006,06,25,05,54,12.30
2006,06,25,05,55,12.30
2006,06,25,05,56,12.30
2006,06,25,05,57,12.30
2006,06,25,05,58,12.40
2006,06,25,05,59,12.40
2006,06,25,06,00,12.50
2006,06,25,06,01,12.50
2006,06,25,06,02,12.60
2006,06,25,06,03,12.70
2006,06,25,06,04,12.70
2006,06,25,06,05,12.80
2006,06,25,06,06,12.80
2006,06,25,06,07,12.90
2006,06,25,06,08,13.00
2006,06,25,06,09,13.00
2006,06,25,06,10,13.10
2006,06,25,06,11,13.10
2006,06,25,06,12,13.20
2006,06,25,06,13,13.30
2006,06,25,06,14,13.30
2006,06,25,06,15,13.40
2006,06,25,06,16,13.40
2006,06,25,06,17,13.50
2006,06,25,06,18,13.60
2006,06,25,06,19,13.60
2006,06,25,06,20,13.70
2006,06,25,06,21,13.70
2006,06,25,06,22,13.80
2006,06,25,06,23,13.80
2006,06,25,06,24,13.90
2006,06,25,06,25,14.00
2006,06,25,06,26,14.00
2006,06,25,06,27,14.10
2006,06,25,06,28,14.20
2006,06,25,06,29,14.30
2006,06,25,06,30,14.30
2006,06,25,06,31,14.40
2006,06,25,06,32,14.40
2006,06,25,06,33,14.50
2006,06,25,06,34,14.60
2006,06,25,06,35,14.70
2006,06,25,06,36,14.70
2006,06,25,06,37,14.80
2006,06,25,06,38,14.80
2006,06,25,06,39,14.80
2006,06,25,06,40,14.90
2006,06,25,06,41,15.00
2006,06,25,06,42,15.10
2006,06,25,06,43,15.10
2006,06,25,06,44,15.30
2006,06,25,06,45,15.30
2006,06,25,06,46,15.50
2006,06,25,06,47,15.60
2006,06,25,06,48,15.70
2006,06,25,06,49,15.80
2006,06,25,06,50,15.90
2006,06,25,06,51,16.10
2006,06,25,06,52,16.10
2006,06,25,06,53,16.20
2006,06,25,06,54,16.20
2006,06,25,06,55,16.30
2006,06,25,06,56,16.40
2006,06,25,06,57,16.60
2006,06,25,06,58,16.70
2006,06,25,06,59,16.80
2006,06,25,07,00,16.90
2006,06,25,07,01,17.00
2006,06,25,07,02,17.00
2006,06,25,07,03,17.10
2006,06,25,07,04,17.20
2006,06,25,07,05,17.30
2006,06,25,07,06,17.30
2006,06,25,07,07,17.40
2006,06,25,07,08,17.50
2006,06,25,07,09,17.50
2006,06,25,07,10,17.50
2006,06,25,07,11,17.60
2006,06,25,07,12,17.60
2006,06,25,07,13,17.70
2006,06,25,07,14,17.80
2006,06,25,07,15,17.80
2006,06,25,07,16,17.80
2006,06,25,07,17,17.90
2006,06,25,07,18,17.90
2006,06,25,07,19,17.90
2006,06,25,07,20,18.00
2006,06,25,07,21,18.10
2006,06,25,07,22,18.10
2006,06,25,07,23,18.20
2006,06,25,07,24,18.20
2006,06,25,07,25,18.20
2006,06,25,07,26,18.40
2006,06,25,07,27,18.50
2006,06,25,07,28,18.60
2006,06,25,07,29,18.70
2006,06,25,07,30,18.80
2006,06,25,07,31,18.90
2006,06,25,07,32,18.90
2006,06,25,07,33,18.90
2006,06,25,07,34,19.00
2006,06,25,07,35,19.10
2006,06,25,07,36,19.10
2006,06,25,07,37,19.20
2006,06,25,07,38,19.30
2006,06,25,07,39,19.30
2006,06,25,07,40,19.40
2006,06,25,07,41,19.50
2006,06,25,07,42,19.60
2006,06,25,07,43,19.60
2006,06,25,07,44,19.70
2006,06,25,07,45,19.70
2006,06,25,07,46,19.80
2006,06,25,07,47,19.90
2006,06,25,07,48,19.90
2006,06,25,07,49,19.90
2006,06,25,07,50,19.90
2006,06,25,07,51,20.10
2006,06,25,07,52,20.10
2006,06,25,07,53,20.20
2006,06,25,07,54,20.20
2006,06,25,07,55,20.40
2006,06,25,07,56,20.40
2006,06,25,07,57,20.50
2006,06,25,07,58,20.50
2006,06,25,07,59,20.60
2006,06,25,08,00,20.60
2006,06,25,08,01,20.80
2006,06,25,08,02,20.80
2006,06,25,08,03,21.00
2006,06,25,08,04,21.10
2006,06,25,08,05,21.20
2006,06,25,08,06,21.30
2006,06,25,08,07,21.50
2006,06,25,08,08,21.60
2006,06,25,08,09,21.60
2006,06,25,08,10,21.70
2006,06,25,08,11,21.80
2006,06,25,08,12,21.90
2006,06,25,08,13,22.00
2006,06,25,08,14,22.00
2006,06,25,08,15,22.10
2006,06,25,08,16,22.20
2006,06,25,08,17,22.20
2006,06,25,08,18,22.20
2006,06,25,08,19,22.20
2006,06,25,08,20,22.20
2006,06,25,08,21,22.20
2006,06,25,08,22,22.20
2006,06,25,08,23,22.30
2006,06,25,08,24,22.30
2006,06,25,08,25,22.40
2006,06,25,08,26,22.40
2006,06,25,08,27,22.40
2006,06,25,08,28,22.60
2006,06,25,08,29,22.60
2006,06,25,08,30,22.60
2006,06,25,08,31,22.70
2006,06,25,08,32,22.70
2006,06,25,08,33,22.80
2006,06,25,08,34,22.90
2006,06,25,08,35,23.00
2006,06,25,08,36,23.10
2006,06,25,08,37,23.20
2006,06,25,08,38,23.30
2006,06,25,08,39,23.40
2006,06,25,08,40,23.50
2006,06,25,08,41,23.60
2006,06,25,08,42,23.70
2006,06,25,08,43,23.70
2006,06,25,08,44,23.70
2006,06,25,08,45,23.70
2006,06,25,08,46,23.70
2006,06,25,08,47,23.70
2006,06,25,08,48,23.80
2006,06,25,08,49,23.80
2006,06,25,08,50,23.90
2006,06,25,08,51,24.00
2006,06,25,08,52,24.10
2006,06,25,08,53,24.10
2006,06,25,08,54,24.10
2006,06,25,08,55,24.00
2006,06,25,08,56,23.70
2006,06,25,08,57,23.70
2006,06,25,08,58,23.70
2006,06,25,08,59,23.70
2006,06,25,09,00,23.80
2006,06,25,09,01,23.80
2006,06,25,09,02,23.70
2006,06,25,09,03,23.60
2006,06,25,09,04,23.60
2006,06,25,09,05,23.60
2006,06,25,09,06,23.60
2006,06,25,09,07,23.70
2006,06,25,09,08,23.70
2006,06,25,09,09,23.80
2006,06,25,09,10,23.80
2006,06,25,09,11,23.80
2006,06,25,09,12,23.70
2006,06,25,09,13,23.70
2006,06,25,09,14,23.70
2006,06,25,09,15,23.70
2006,06,25,09,16,23.60
2006,06,25,09,17,23.60
2006,06,25,09,18,23.60
2006,06,25,09,19,23.70
2006,06,25,09,20,23.70
2006,06,25,09,21,23.70
2006,06,25,09,22,23.70
2006,06,25,09,23,23.80
2006,06,25,09,24,24.00
2006,06,25,09,25,24.10
2006,06,25,09,26,24.20
2006,06,25,09,27,24.30
2006,06,25,09,28,24.30
2006,06,25,09,29,24.40
2006,06,25,09,30,24.50
2006,06,25,09,31,24.60
2006,06,25,09,32,24.70
2006,06,25,09,33,24.80
2006,06,25,09,34,24.80
2006,06,25,09,35,24.70
2006,06,25,09,36,24.80
2006,06,25,09,37,24.90
2006,06,25,09,38,24.90
2006,06,25,09,39,24.90
2006,06,25,09,40,24.80
2006,06,25,09,41,24.90
2006,06,25,09,42,25.00
2006,06,25,09,43,25.00
2006,06,25,09,44,25.00
2006,06,25,09,45,25.10
2006,06,25,09,46,25.10
2006,06,25,09,47,25.00
2006,06,25,09,48,25.00
2006,06,25,09,49,25.00
2006,06,25,09,50,25.00
2006,06,25,09,51,25.00
2006,06,25,09,52,25.00
2006,06,25,09,53,25.00
2006,06,25,09,54,25.00
2006,06,25,09,55,25.10
2006,06,25,09,56,25.20
2006,06,25,09,57,25.20
2006,06,25,09,58,25.30
2006,06,25,09,59,25.20
2006,06,25,10,00,25.20
2006,06,25,10,01,25.10
2006,06,25,10,02,25.10
2006,06,25,10,03,24.90
2006,06,25,10,04,24.80
2006,06,25,10,05,24.80
2006,06,25,10,06,24.60
2006,06,25,10,07,24.50
2006,06,25,10,08,24.30
2006,06,25,10,09,24.20
2006,06,25,10,10,24.20
2006,06,25,10,11,24.10
2006,06,25,10,12,24.10
2006,06,25,10,13,24.10
2006,06,25,10,14,24.10
2006,06,25,10,15,24.20
2006,06,25,10,16,24.20
2006,06,25,10,17,24.20
2006,06,25,10,18,24.20
2006,06,25,10,19,24.20
2006,06,25,10,20,24.20
2006,06,25,10,21,24.20
2006,06,25,10,22,24.20
2006,06,25,10,23,24.40
2006,06,25,10,24,24.40
2006,06,25,10,25,24.50
2006,06,25,10,26,24.70
2006,06,25,10,27,24.80
2006,06,25,10,28,24.90
2006,06,25,10,29,24.80
2006,06,25,10,30,24.70
2006,06,25,10,31,24.60
2006,06,25,10,32,24.60
2006,06,25,10,33,24.60
2006,06,25,10,34,24.70
2006,06,25,10,35,24.90
2006,06,25,10,36,25.00
2006,06,25,10,37,25.20
2006,06,25,10,38,25.30
2006,06,25,10,39,25.40
2006,06,25,10,40,25.50
2006,06,25,10,41,25.60
2006,06,25,10,42,25.80
2006,06,25,10,43,25.90
2006,06,25,10,44,25.90
2006,06,25,10,45,25.80
2006,06,25,10,46,25.90
2006,06,25,10,47,26.00
2006,06,25,10,48,26.10
2006,06,25,10,49,26.00
2006,06,25,10,50,26.00
2006,06,25,10,51,25.90
2006,06,25,10,52,26.00
2006,06,25,10,53,26.00
2006,06,25,10,54,26.30
2006,06,25,10,55,26.50
2006,06,25,10,56,26.40
2006,06,25,10,57,26.40
2006,06,25,10,58,26.30
2006,06,25,10,59,25.90
2006,06,25,11,00,25.80
2006,06,25,11,01,25.70
2006,06,25,11,02,25.70
2006,06,25,11,03,25.70
2006,06,25,11,04,25.70
2006,06,25,11,05,25.80
2006,06,25,11,06,26.00
2006,06,25,11,07,26.20
2006,06,25,11,08,26.40
2006,06,25,11,09,26.40
2006,06,25,11,10,26.60
2006,06,25,11,11,26.60
2006,06,25,11,12,26.70
2006,06,25,11,13,26.80
2006,06,25,11,14,26.90
2006,06,25,11,15,27.10
2006,06,25,11,16,27.30
2006,06,25,11,17,27.70
2006,06,25,11,18,27.90
2006,06,25,11,19,28.10
2006,06,25,11,20,28.30
2006,06,25,11,21,28.40
2006,06,25,11,22,28.50
2006,06,25,11,23,28.60
2006,06,25,11,24,28.70
2006,06,25,11,25,28.70
2006,06,25,11,26,28.70
2006,06,25,11,27,28.70
2006,06,25,11,28,28.70
2006,06,25,11,29,28.60
2006,06,25,11,30,28.60
2006,06,25,11,31,28.50
2006,06,25,11,32,28.50
2006,06,25,11,33,28.50
2006,06,25,11,34,28.40
2006,06,25,11,35,28.50
2006,06,25,11,36,28.60
2006,06,25,11,37,28.70
2006,06,25,11,38,28.30
2006,06,25,11,39,28.10
2006,06,25,11,40,28.10
2006,06,25,11,41,28.10
2006,06,25,11,42,28.10
2006,06,25,11,43,28.10
2006,06,25,11,44,28.10
2006,06,25,11,45,28.20
2006,06,25,11,46,28.30
2006,06,25,11,47,28.40
2006,06,25,11,48,28.40
2006,06,25,11,49,28.30
2006,06,25,11,50,28.40
2006,06,25,11,51,28.40
2006,06,25,11,52,28.40
2006,06,25,11,53,28.40
2006,06,25,11,54,28.40
2006,06,25,11,55,28.30
2006,06,25,11,56,28.30
2006,06,25,11,57,28.20
2006,06,25,11,58,27.90
2006,06,25,11,59,27.90
2006,06,25,12,00,27.90
2006,06,25,12,01,28.10
2006,06,25,12,02,28.40
2006,06,25,12,03,28.60
2006,06,25,12,04,28.80
2006,06,25,12,05,28.90
2006,06,25,12,06,28.90
2006,06,25,12,07,29.10
2006,06,25,12,08,29.30
2006,06,25,12,09,29.50
2006,06,25,12,10,29.60
2006,06,25,12,11,29.70
2006,06,25,12,12,29.70
2006,06,25,12,13,29.50
2006,06,25,12,14,29.40
2006,06,25,12,15,29.30
2006,06,25,12,16,29.40
2006,06,25,12,17,29.50
2006,06,25,12,18,29.50
2006,06,25,12,19,29.20
2006,06,25,12,20,29.10
2006,06,25,12,21,29.00
2006,06,25,12,22,28.90
2006,06,25,12,23,29.00
2006,06,25,12,24,29.10
2006,06,25,12,25,29.30
2006,06,25,12,26,29.50
2006,06,25,12,27,29.70
2006,06,25,12,28,29.90
2006,06,25,12,29,30.10
2006,06,25,12,30,30.20
2006,06,25,12,31,30.10
2006,06,25,12,32,29.90
2006,06,25,12,33,29.60
2006,06,25,12,34,29.30
2006,06,25,12,35,28.90
2006,06,25,12,36,28.80
2006,06,25,12,37,28.70
2006,06,25,12,38,28.60
2006,06,25,12,39,28.40
2006,06,25,12,40,28.30
2006,06,25,12,41,28.20
2006,06,25,12,42,28.20
2006,06,25,12,43,28.10
2006,06,25,12,44,27.90
2006,06,25,12,45,27.60
2006,06,25,12,46,27.50
2006,06,25,12,47,27.40
2006,06,25,12,48,27.30
2006,06,25,12,49,27.20
2006,06,25,12,50,27.10
2006,06,25,12,51,27.10
2006,06,25,12,52,27.10
2006,06,25,12,53,27.30
2006,06,25,12,54,27.20
2006,06,25,12,55,27.10
2006,06,25,12,56,27.20
2006,06,25,12,57,27.30
2006,06,25,12,58,27.30
2006,06,25,12,59,27.40
2006,06,25,13,00,27.40
2006,06,25,13,01,27.40
2006,06,25,13,02,27.10
2006,06,25,13,03,27.20
2006,06,25,13,04,27.20
2006,06,25,13,05,27.20
2006,06,25,13,06,27.30
2006,06,25,13,07,27.50
2006,06,25,13,08,27.60
2006,06,25,13,09,27.70
2006,06,25,13,10,27.80
2006,06,25,13,11,27.80
2006,06,25,13,12,27.70
2006,06,25,13,13,27.70
2006,06,25,13,14,27.60
2006,06,25,13,15,27.60
2006,06,25,13,16,27.70
2006,06,25,13,17,27.90
2006,06,25,13,18,28.00
2006,06,25,13,19,28.10
2006,06,25,13,20,28.20
2006,06,25,13,21,28.40
2006,06,25,13,22,28.60
2006,06,25,13,23,28.70
2006,06,25,13,24,28.70
2006,06,25,13,25,28.70
2006,06,25,13,26,28.80
2006,06,25,13,27,28.90
2006,06,25,13,28,28.90
2006,06,25,13,29,29.00
2006,06,25,13,30,29.20
2006,06,25,13,31,29.40
2006,06,25,13,32,29.30
2006,06,25,13,33,29.20
2006,06,25,13,34,29.00
2006,06,25,13,35,28.90
2006,06,25,13,36,28.90
2006,06,25,13,37,28.70
2006,06,25,13,38,28.50
2006,06,25,13,39,28.40
2006,06,25,13,40,28.50
2006,06,25,13,41,28.70
2006,06,25,13,42,28.80
2006,06,25,13,43,28.90
2006,06,25,13,44,28.90
2006,06,25,13,45,28.90
2006,06,25,13,46,28.90
2006,06,25,13,47,29.10
2006,06,25,13,48,29.30
2006,06,25,13,49,29.40
2006,06,25,13,50,29.50
2006,06,25,13,51,29.60
2006,06,25,13,52,29.60
2006,06,25,13,53,29.40
2006,06,25,13,54,29.40
2006,06,25,13,55,29.40
2006,06,25,13,56,29.30
2006,06,25,13,57,29.20
2006,06,25,13,58,29.30
2006,06,25,13,59,29.30
2006,06,25,14,00,29.20
2006,06,25,14,01,29.10
2006,06,25,14,02,29.10
2006,06,25,14,03,29.10
2006,06,25,14,04,29.00
2006,06,25,14,05,28.80
2006,06,25,14,06,28.70
2006,06,25,14,07,28.60
2006,06,25,14,08,28.60
2006,06,25,14,09,28.60
2006,06,25,14,10,28.70
2006,06,25,14,11,28.90
2006,06,25,14,12,29.00
2006,06,25,14,13,29.00
2006,06,25,14,14,28.90
2006,06,25,14,15,28.90
2006,06,25,14,16,28.90
2006,06,25,14,17,28.90
2006,06,25,14,18,29.00
2006,06,25,14,19,29.00
2006,06,25,14,20,28.90
2006,06,25,14,21,28.60
2006,06,25,14,22,28.60
2006,06,25,14,23,28.60
2006,06,25,14,24,28.70
2006,06,25,14,25,28.50
2006,06,25,14,26,28.50
2006,06,25,14,27,28.70
2006,06,25,14,28,28.90
2006,06,25,14,29,28.90
2006,06,25,14,30,29.00
2006,06,25,14,31,28.90
2006,06,25,14,32,28.90
2006,06,25,14,33,28.70
2006,06,25,14,34,28.60
2006,06,25,14,35,28.70
2006,06,25,14,36,28.80
2006,06,25,14,37,28.90
2006,06,25,14,38,28.90
2006,06,25,14,39,29.00
2006,06,25,14,40,29.10
2006,06,25,14,41,29.10
2006,06,25,14,42,29.00
2006,06,25,14,43,28.90
2006,06,25,14,44,28.90
2006,06,25,14,45,28.90
2006,06,25,14,46,28.80
2006,06,25,14,47,28.70
2006,06,25,14,48,28.80
2006,06,25,14,49,28.90
2006,06,25,14,50,28.90
2006,06,25,14,51,28.80
2006,06,25,14,52,28.80
2006,06,25,14,53,28.90
2006,06,25,14,54,28.90
2006,06,25,14,55,28.90
2006,06,25,14,56,28.80
2006,06,25,14,57,28.80
2006,06,25,14,58,28.80
2006,06,25,14,59,28.90
2006,06,25,15,00,28.90
2006,06,25,15,01,28.90
2006,06,25,15,02,29.00
2006,06,25,15,03,28.90
2006,06,25,15,04,29.10
2006,06,25,15,05,29.00
2006,06,25,15,06,28.90
2006,06,25,15,07,28.70
2006,06,25,15,08,28.60
2006,06,25,15,09,28.50
2006,06,25,15,10,28.60
2006,06,25,15,11,28.80
2006,06,25,15,12,28.90
2006,06,25,15,13,28.90
2006,06,25,15,14,29.00
2006,06,25,15,15,29.20
2006,06,25,15,16,29.40
2006,06,25,15,17,29.40
2006,06,25,15,18,29.40
2006,06,25,15,19,29.40
2006,06,25,15,20,29.40
2006,06,25,15,21,29.50
2006,06,25,15,22,29.60
2006,06,25,15,23,29.50
2006,06,25,15,24,29.20
2006,06,25,15,25,29.20
2006,06,25,15,26,29.30
2006,06,25,15,27,29.40
2006,06,25,15,28,29.60
2006,06,25,15,29,29.80
2006,06,25,15,30,30.00
2006,06,25,15,31,30.10
2006,06,25,15,32,30.20
2006,06,25,15,33,30.10
2006,06,25,15,34,30.10
2006,06,25,15,35,30.00
2006,06,25,15,36,30.00
2006,06,25,15,37,30.00
2006,06,25,15,38,29.90
2006,06,25,15,39,29.80
2006,06,25,15,40,29.90
2006,06,25,15,41,29.90
2006,06,25,15,42,29.80
2006,06,25,15,43,29.80
2006,06,25,15,44,29.60
2006,06,25,15,45,29.50
2006,06,25,15,46,29.50
2006,06,25,15,47,29.50
2006,06,25,15,48,29.60
2006,06,25,15,49,29.70
2006,06,25,15,50,29.80
2006,06,25,15,51,30.00
2006,06,25,15,52,30.10
2006,06,25,15,53,30.20
2006,06,25,15,54,30.00
2006,06,25,15,55,29.80
2006,06,25,15,56,29.60
2006,06,25,15,57,29.50
2006,06,25,15,58,29.60
2006,06,25,15,59,29.60
2006,06,25,16,00,29.60
2006,06,25,16,01,29.60
2006,06,25,16,02,29.60
2006,06,25,16,03,29.60
2006,06,25,16,04,29.40
2006,06,25,16,05,29.20
2006,06,25,16,06,29.10
2006,06,25,16,07,29.10
2006,06,25,16,08,29.10
2006,06,25,16,09,29.20
2006,06,25,16,10,29.20
2006,06,25,16,11,29.30
2006,06,25,16,12,29.40
2006,06,25,16,13,29.50
2006,06,25,16,14,29.60
2006,06,25,16,15,29.80
2006,06,25,16,16,29.70
2006,06,25,16,17,29.70
2006,06,25,16,18,29.60
2006,06,25,16,19,29.40
2006,06,25,16,20,29.20
2006,06,25,16,21,29.10
2006,06,25,16,22,29.00
2006,06,25,16,23,28.90
2006,06,25,16,24,28.90
2006,06,25,16,25,28.90
2006,06,25,16,26,29.00
2006,06,25,16,27,29.10
2006,06,25,16,28,29.10
2006,06,25,16,29,29.10
2006,06,25,16,30,29.10
2006,06,25,16,31,28.90
2006,06,25,16,32,28.80
2006,06,25,16,33,28.70
2006,06,25,16,34,28.60
2006,06,25,16,35,28.60
2006,06,25,16,36,28.60
2006,06,25,16,37,28.70
2006,06,25,16,38,28.90
2006,06,25,16,39,28.90
2006,06,25,16,40,29.00
2006,06,25,16,41,29.10
2006,06,25,16,42,29.20
2006,06,25,16,43,29.10
2006,06,25,16,44,29.10
2006,06,25,16,45,29.10
2006,06,25,16,46,29.10
2006,06,25,16,47,29.10
2006,06,25,16,48,29.20
2006,06,25,16,49,29.30
2006,06,25,16,50,29.50
2006,06,25,16,51,29.60
2006,06,25,16,52,29.70
2006,06,25,16,53,29.70
2006,06,25,16,54,29.70
2006,06,25,16,55,29.70
2006,06,25,16,56,29.70
2006,06,25,16,57,29.90
2006,06,25,16,58,29.90
2006,06,25,16,59,29.90
2006,06,25,17,00,29.90
2006,06,25,17,01,29.90
2006,06,25,17,02,29.80
2006,06,25,17,03,29.80
2006,06,25,17,04,29.80
2006,06,25,17,05,29.80
2006,06,25,17,06,29.80
2006,06,25,17,07,29.80
2006,06,25,17,08,29.80
2006,06,25,17,09,29.80
2006,06,25,17,10,29.90
2006,06,25,17,11,29.90
2006,06,25,17,12,29.90
2006,06,25,17,13,29.80
2006,06,25,17,14,29.70
2006,06,25,17,15,29.70
2006,06,25,17,16,29.80
2006,06,25,17,17,29.80
2006,06,25,17,18,29.80
2006,06,25,17,19,29.90